Tracking 22779 objects as of 12-Apr-2021
HD Live streaming from Space Station
objects crossing your sky now

STARLINK-1227

Track STARLINK-1227 now!
10-day predictions
STARLINK-1227 is classified as:


NORAD ID: 45230
Int'l Code: 2020-012BE
Perigee: 554.0 km
Apogee: 554.7 km
Inclination: 53.1 °
Period: 95.6 minutes
Semi major axis: 6925 km
RCS: Unknown
Launch date: February 17, 2020
Source: United States (US)
Launch site: AIR FORCE EASTERN TEST RANGE (AFETR)
aabbcc
Your satellite tracking list
Your tracking list is empty




NASA's NSSDC Master Catalog

Two Line Element Set (TLE):
1 45230U 20012BE  21101.80328562  .00000436  00000-0  48115-4 0  9994
2 45230  53.0553 135.2053 0000481 103.8075 256.2967 15.06395929 65189
Source of the keplerian elements: AFSPC